| time (UTC) | temp F | wind direction | speed MPH | gust MPH | rain 1hr in | rain 24hr in | rain mn in | humidity % | barometer mb |
| 20260903221538 | 70 | 243 | 0.0 | 1.0 | 0.00 | 0.00 | 0.00 | 78 | 1019.8 |
| 20260903221030 | 70 | 240 | 0.0 | 1.0 | 0.00 | 0.00 | 0.00 | 78 | 1019.8 |
| 20260903220545 | 70 | 250 | 0.0 | 1.0 | 0.00 | 0.00 | 0.00 | 77 | 1019.7 |
| 20260903220035 | 70 | 230 | 0.0 | 1.0 | 0.00 | 0.00 | 0.00 | 77 | 1019.8 |
| 20260903215531 | 70 | 231 | 0.0 | 0.0 | 0.00 | 0.00 | 0.00 | 77 | 1019.8 |
| 20260903215043 | 70 | 231 | 0.0 | 1.0 | 0.00 | 0.00 | 0.00 | 76 | 1019.8 |
| 20260903214541 | 71 | 231 | 0.0 | 1.0 | 0.00 | 0.00 | 0.00 | 76 | 1019.8 |
| 20260903214035 | 71 | 267 | 0.0 | 1.0 | 0.00 | 0.00 | 0.00 | 76 | 1019.8 |
| 20260903213532 | 71 | 267 | 0.0 | 1.0 | 0.00 | 0.00 | 0.00 | 75 | 1019.8 |
| 20260903213032 | 71 | 267 | 0.0 | 1.0 | 0.00 | 0.00 | 0.00 | 75 | 1019.8 |
| 20260903212546 | 72 | 252 | 0.0 | 1.0 | 0.00 | 0.00 | 0.00 | 74 | 1019.7 |
| 20260903212044 | 72 | 227 | 0.0 | 1.0 | 0.00 | 0.00 | 0.00 | 74 | 1019.8 |
| 20260903211540 | 72 | 227 | 0.0 | 1.0 | 0.00 | 0.00 | 0.00 | 74 | 1019.9 |
| 20260903211029 | 72 | 240 | 0.0 | 1.0 | 0.00 | 0.00 | 0.00 | 73 | 1019.8 |
| 20260903210542 | 73 | 240 | 0.0 | 1.0 | 0.00 | 0.00 | 0.00 | 72 | 1019.8 |
| 20260903210028 | 73 | 240 | 0.0 | 1.0 | 0.00 | 0.00 | 0.00 | 72 | 1019.8 |
| 20260903205543 | 73 | 223 | 0.0 | 1.0 | 0.00 | 0.00 | 0.00 | 71 | 1019.9 |
| 20260903205035 | 74 | 222 | 0.0 | 1.0 | 0.00 | 0.00 | 0.00 | 71 | 1019.8 |
| 20260903204531 | 74 | 222 | 0.0 | 2.0 | 0.00 | 0.00 | 0.00 | 70 | 1019.8 |
| 20260903204030 | 74 | 246 | 0.0 | 2.0 | 0.00 | 0.00 | 0.00 | 70 | 1019.9 |
| 20260903203546 | 74 | 224 | 1.0 | 2.0 | 0.00 | 0.00 | 0.00 | 69 | 1019.8 |
| 20260903203030 | 75 | 223 | 1.0 | 2.0 | 0.00 | 0.00 | 0.00 | 69 | 1019.9 |
| 20260903202545 | 75 | 236 | 0.0 | 2.0 | 0.00 | 0.00 | 0.00 | 69 | 1019.9 |
| 20260903202037 | 75 | 234 | 0.0 | 3.0 | 0.00 | 0.00 | 0.00 | 68 | 1020.0 |
| 20260903201530 | 75 | 217 | 1.0 | 3.0 | 0.00 | 0.00 | 0.00 | 68 | 1020.0 |
| 20260903201042 | 75 | 265 | 0.0 | 2.0 | 0.00 | 0.00 | 0.00 | 68 | 1020.1 |
| 20260903200558 | 75 | 278 | 1.0 | 3.0 | 0.00 | 0.00 | 0.00 | 67 | 1020.1 |
| 20260903200027 | 75 | 234 | 1.0 | 3.0 | 0.00 | 0.00 | 0.00 | 68 | 1020.0 |
| 20260903195539 | 75 | 282 | 1.0 | 3.0 | 0.00 | 0.00 | 0.00 | 68 | 1020.1 |
| 20260903195027 | 75 | 225 | 1.0 | 2.0 | 0.00 | 0.00 | 0.00 | 67 | 1020.1 |
| 20260903194539 | 76 | 246 | 0.0 | 2.0 | 0.00 | 0.00 | 0.00 | 67 | 1020.1 |
| 20260903194033 | 76 | 227 | 0.0 | 2.0 | 0.00 | 0.00 | 0.00 | 66 | 1020.1 |
| 20260903193532 | 76 | 227 | 0.0 | 2.0 | 0.00 | 0.00 | 0.00 | 66 | 1020.1 |
| 20260903193027 | 77 | 240 | 0.0 | 2.0 | 0.00 | 0.00 | 0.00 | 65 | 1020.1 |
| 20260903192536 | 77 | 227 | 1.0 | 2.0 | 0.00 | 0.00 | 0.00 | 65 | 1020.0 |
| 20260903192033 | 77 | 219 | 1.0 | 2.0 | 0.00 | 0.00 | 0.00 | 64 | 1020.0 |
| 20260903191547 | 77 | 222 | 1.0 | 2.0 | 0.00 | 0.00 | 0.00 | 64 | 1019.9 |
| 20260903191041 | 77 | 224 | 1.0 | 2.0 | 0.00 | 0.00 | 0.00 | 64 | 1019.9 |
| 20260903190535 | 78 | 225 | 1.0 | 2.0 | 0.00 | 0.00 | 0.00 | 63 | 1019.9 |
| 20260903190027 | 78 | 233 | 1.0 | 3.0 | 0.00 | 0.00 | 0.00 | 63 | 1019.9 |
| 20260903185540 | 78 | 212 | 1.0 | 3.0 | 0.00 | 0.00 | 0.00 | 63 | 1019.8 |
| 20260903185028 | 78 | 236 | 1.0 | 2.0 | 0.00 | 0.00 | 0.00 | 62 | 1019.9 |
| 20260903184540 | 78 | 227 | 1.0 | 2.0 | 0.00 | 0.00 | 0.00 | 62 | 1019.9 |
| 20260903184034 | 79 | 221 | 0.0 | 2.0 | 0.00 | 0.00 | 0.00 | 61 | 1019.9 |
| 20260903183546 | 79 | 232 | 0.0 | 2.0 | 0.00 | 0.00 | 0.00 | 61 | 1019.9 |
| 20260903183040 | 79 | 240 | 0.0 | 2.0 | 0.00 | 0.00 | 0.00 | 61 | 1020.0 |
| 20260903182534 | 80 | 211 | 0.0 | 2.0 | 0.00 | 0.00 | 0.00 | 60 | 1019.8 |
| 20260903182052 | 80 | 238 | 1.0 | 2.0 | 0.00 | 0.00 | 0.00 | 60 | 1019.9 |
| 20260903181609 | 80 | 244 | 0.0 | 2.0 | 0.00 | 0.00 | 0.00 | 59 | 1019.9 |
| 20260903181043 | 80 | 279 | 1.0 | 3.0 | 0.00 | 0.00 | 0.00 | 59 | 1019.9 |
| 20260903180538 | 80 | 276 | 1.0 | 3.0 | 0.00 | 0.00 | 0.00 | 58 | 1020.0 |
| 20260903180027 | 81 | 227 | 0.0 | 4.0 | 0.00 | 0.00 | 0.00 | 58 | 1020.0 |
| 20260903175540 | 81 | 217 | 1.0 | 6.0 | 0.00 | 0.00 | 0.00 | 58 | 1020.0 |
| 20260903175037 | 81 | 267 | 2.0 | 6.0 | 0.00 | 0.00 | 0.00 | 58 | 1020.0 |
| 20260903174530 | 81 | 268 | 1.0 | 5.0 | 0.00 | 0.00 | 0.00 | 57 | 1020.1 |
| 20260903174033 | 82 | 284 | 1.0 | 2.0 | 0.00 | 0.00 | 0.00 | 57 | 1020.1 |
| 20260903173533 | 82 | 285 | 1.0 | 3.0 | 0.00 | 0.00 | 0.00 | 56 | 1020.1 |
| 20260903173105 | 82 | 303 | 1.0 | 5.0 | 0.00 | 0.00 | 0.00 | 57 | 1020.0 |
| 20260903172540 | 82 | 288 | 1.0 | 9.0 | 0.00 | 0.00 | 0.00 | 56 | 1020.0 |
| 20260903172037 | 82 | 355 | 1.0 | 9.0 | 0.00 | 0.00 | 0.00 | 56 | 1020.1 |
| 20260903171557 | 83 | 267 | 2.0 | 10.0 | 0.00 | 0.00 | 0.00 | 55 | 1020.1 |
| 20260903171034 | 83 | 285 | 3.0 | 10.0 | 0.00 | 0.00 | 0.00 | 54 | 1020.0 |
| 20260903170616 | 84 | 254 | 3.0 | 11.0 | 0.00 | 0.00 | 0.00 | 54 | 1020.0 |
| 20260903170050 | 84 | 263 | 3.0 | 11.0 | 0.00 | 0.00 | 0.00 | 53 | 1020.0 |
| 20260903165609 | 84 | 269 | 3.0 | 8.0 | 0.00 | 0.00 | 0.00 | 53 | 1020.0 |
| 20260903165045 | 84 | 234 | 1.0 | 8.0 | 0.00 | 0.00 | 0.00 | 53 | 1019.9 |
| 20260903164539 | 84 | 283 | 2.0 | 10.0 | 0.00 | 0.00 | 0.00 | 53 | 1019.9 |
| 20260903164030 | 84 | 286 | 1.0 | 10.0 | 0.00 | 0.00 | 0.00 | 52 | 1019.9 |
| 20260903163547 | 85 | 291 | 2.0 | 9.0 | 0.00 | 0.00 | 0.00 | 52 | 1019.8 |
| 20260903163046 | 85 | 298 | 1.0 | 9.0 | 0.00 | 0.00 | 0.00 | 53 | 1019.8 |
| 20260903162542 | 85 | 309 | 1.0 | 7.0 | 0.00 | 0.00 | 0.00 | 52 | 1019.9 |
| 20260903162035 | 85 | 215 | 2.0 | 8.0 | 0.00 | 0.00 | 0.00 | 52 | 1019.9 |
| 20260903161529 | 85 | 242 | 2.0 | 11.0 | 0.00 | 0.00 | 0.00 | 52 | 1020.0 |
| 20260903161043 | 85 | 283 | 4.0 | 12.0 | 0.00 | 0.00 | 0.00 | 52 | 1020.0 |
| 20260903160601 | 85 | 308 | 6.0 | 12.0 | 0.00 | 0.00 | 0.00 | 51 | 1020.0 |
| 20260903160046 | 86 | 278 | 7.0 | 11.0 | 0.00 | 0.00 | 0.00 | 51 | 1020.1 |
| 20260903155537 | 86 | 329 | 3.0 | 10.0 | 0.00 | 0.00 | 0.00 | 52 | 1020.1 |
| 20260903155058 | 86 | 311 | 3.0 | 10.0 | 0.00 | 0.00 | 0.00 | 52 | 1020.2 |
| 20260903154530 | 86 | 279 | 3.0 | 10.0 | 0.00 | 0.00 | 0.00 | 52 | 1020.2 |
| 20260903154043 | 86 | 296 | 2.0 | 10.0 | 0.00 | 0.00 | 0.00 | 51 | 1020.2 |
| 20260903153541 | 86 | 273 | 5.0 | 11.0 | 0.00 | 0.00 | 0.00 | 51 | 1020.2 |
| 20260903153034 | 86 | 322 | 3.0 | 11.0 | 0.00 | 0.00 | 0.00 | 51 | 1020.2 |
| 20260903152527 | 86 | 290 | 2.0 | 8.0 | 0.00 | 0.00 | 0.00 | 51 | 1020.2 |
| 20260903152054 | 86 | 228 | 4.0 | 8.0 | 0.00 | 0.00 | 0.00 | 51 | 1020.2 |
| 20260903151542 | 86 | 263 | 1.0 | 9.0 | 0.00 | 0.00 | 0.00 | 51 | 1020.4 |
| 20260903151036 | 86 | 229 | 4.0 | 9.0 | 0.00 | 0.00 | 0.00 | 52 | 1020.4 |
| 20260903150548 | 86 | 327 | 4.0 | 10.0 | 0.00 | 0.00 | 0.00 | 52 | 1020.4 |
| 20260903150040 | 86 | 285 | 6.0 | 10.0 | 0.00 | 0.00 | 0.00 | 50 | 1020.4 |
| 20260903145532 | 86 | 312 | 3.0 | 9.0 | 0.00 | 0.00 | 0.00 | 52 | 1020.4 |
| 20260903145042 | 86 | 269 | 2.0 | 6.0 | 0.00 | 0.00 | 0.00 | 52 | 1020.5 |
| 20260903144535 | 86 | 226 | 1.0 | 11.0 | 0.00 | 0.00 | 0.00 | 51 | 1020.5 |
| 20260903144031 | 86 | 287 | 4.0 | 11.0 | 0.00 | 0.00 | 0.00 | 51 | 1020.6 |
| 20260903143545 | 85 | 344 | 3.0 | 10.0 | 0.00 | 0.00 | 0.00 | 52 | 1020.6 |
| 20260903143035 | 86 | 279 | 5.0 | 10.0 | 0.00 | 0.00 | 0.00 | 51 | 1020.6 |
| 20260903142530 | 85 | 270 | 3.0 | 10.0 | 0.00 | 0.00 | 0.00 | 52 | 1020.7 |
| 20260903142052 | 86 | 284 | 2.0 | 10.0 | 0.00 | 0.00 | 0.00 | 51 | 1020.7 |
| 20260903141544 | 86 | 305 | 5.0 | 10.0 | 0.00 | 0.00 | 0.00 | 51 | 1020.7 |
| 20260903141036 | 86 | 319 | 3.0 | 9.0 | 0.00 | 0.00 | 0.00 | 52 | 1020.7 |
| 20260903140544 | 85 | 320 | 1.0 | 13.0 | 0.00 | 0.00 | 0.00 | 52 | 1020.6 |
| 20260903140104 | 85 | 273 | 3.0 | 13.0 | 0.00 | 0.00 | 0.00 | 52 | 1020.5 |
| 20260903135536 | 84 | 242 | 1.0 | 11.0 | 0.00 | 0.00 | 0.00 | 52 | 1020.6 |
| 20260903135028 | 85 | 283 | 4.0 | 13.0 | 0.00 | 0.00 | 0.00 | 52 | 1020.8 |
| 20260903134531 | 85 | 223 | 4.0 | 13.0 | 0.00 | 0.00 | 0.00 | 52 | 1020.7 |
| 20260903134044 | 85 | 270 | 4.0 | 9.0 | 0.00 | 0.00 | 0.00 | 52 | 1020.7 |
| 20260903133540 | 85 | 240 | 2.0 | 8.0 | 0.00 | 0.00 | 0.00 | 52 | 1020.8 |
| 20260903133031 | 85 | 284 | 2.0 | 11.0 | 0.00 | 0.00 | 0.00 | 54 | 1020.8 |
| 20260903132544 | 85 | 217 | 2.0 | 11.0 | 0.00 | 0.00 | 0.00 | 53 | 1020.9 |
| 20260903132044 | 84 | 286 | 4.0 | 12.0 | 0.00 | 0.00 | 0.00 | 52 | 1020.8 |
| 20260903131542 | 84 | 360 | 3.0 | 12.0 | 0.00 | 0.00 | 0.00 | 53 | 1020.9 |
| 20260903131038 | 84 | 348 | 3.0 | 10.0 | 0.00 | 0.00 | 0.00 | 54 | 1020.8 |
| 20260903130555 | 84 | 264 | 2.0 | 12.0 | 0.00 | 0.00 | 0.00 | 54 | 1020.9 |
| 20260903130045 | 84 | 263 | 6.0 | 12.0 | 0.00 | 0.00 | 0.00 | 53 | 1020.8 |
| 20260903125536 | 84 | 294 | 1.0 | 14.0 | 0.00 | 0.00 | 0.00 | 54 | 1020.9 |
| 20260903125042 | 83 | 284 | 3.0 | 14.0 | 0.00 | 0.00 | 0.00 | 54 | 1021.0 |
| 20260903124532 | 83 | 253 | 3.0 | 12.0 | 0.00 | 0.00 | 0.00 | 55 | 1021.1 |
| 20260903124045 | 82 | 286 | 5.0 | 12.0 | 0.00 | 0.00 | 0.00 | 56 | 1021.1 |
| 20260903123537 | 82 | 268 | 4.0 | 9.0 | 0.00 | 0.00 | 0.00 | 56 | 1021.1 |
| 20260903123029 | 82 | 217 | 3.0 | 10.0 | 0.00 | 0.00 | 0.00 | 56 | 1021.2 |
| 20260903122540 | 82 | 222 | 5.0 | 10.0 | 0.00 | 0.00 | 0.00 | 56 | 1021.1 |
| 20260903122039 | 81 | 265 | 2.0 | 11.0 | 0.00 | 0.00 | 0.00 | 57 | 1021.2 |
| 20260903121537 | 81 | 219 | 4.0 | 12.0 | 0.00 | 0.00 | 0.00 | 58 | 1021.1 |
| 20260903121030 | 80 | 229 | 4.0 | 12.0 | 0.00 | 0.00 | 0.00 | 58 | 1021.1 |
| 20260903120545 | 80 | 223 | 4.0 | 10.0 | 0.00 | 0.00 | 0.00 | 58 | 1021.0 |
| 20260903120034 | 80 | 254 | 4.0 | 11.0 | 0.00 | 0.00 | 0.00 | 59 | 1021.1 |
| 20260903115553 | 80 | 279 | 4.0 | 12.0 | 0.00 | 0.00 | 0.00 | 58 | 1021.2 |
| 20260903115042 | 80 | 238 | 4.0 | 12.0 | 0.00 | 0.00 | 0.00 | 58 | 1021.3 |
| 20260903114535 | 79 | 270 | 3.0 | 11.0 | 0.00 | 0.00 | 0.00 | 58 | 1021.3 |
| 20260903114025 | 80 | 262 | 5.0 | 11.0 | 0.00 | 0.00 | 0.00 | 57 | 1021.3 |
| 20260903113607 | 80 | 217 | 3.0 | 13.0 | 0.00 | 0.00 | 0.00 | 60 | 1021.3 |
| 20260903113036 | 79 | 232 | 4.0 | 13.0 | 0.00 | 0.00 | 0.00 | 59 | 1021.4 |
| 20260903112529 | 79 | 275 | 4.0 | 12.0 | 0.00 | 0.00 | 0.00 | 60 | 1021.5 |
| 20260903112046 | 80 | 303 | 5.0 | 12.0 | 0.00 | 0.00 | 0.00 | 59 | 1021.4 |
| 20260903111539 | 80 | 257 | 2.0 | 10.0 | 0.00 | 0.00 | 0.00 | 61 | 1021.5 |
| 20260903111102 | 79 | 238 | 2.0 | 9.0 | 0.00 | 0.00 | 0.00 | 61 | 1021.5 |
| 20260903110557 | 79 | 238 | 2.0 | 8.0 | 0.00 | 0.00 | 0.00 | 62 | 1021.4 |
| 20260903110043 | 78 | 207 | 3.0 | 11.0 | 0.00 | 0.00 | 0.00 | 64 | 1021.5 |
| 20260903105603 | 78 | 216 | 3.0 | 11.0 | 0.00 | 0.00 | 0.00 | 63 | 1021.6 |
| 20260903105045 | 78 | 196 | 5.0 | 11.0 | 0.00 | 0.00 | 0.00 | 64 | 1021.6 |
| 20260903104540 | 78 | 279 | 1.0 | 11.0 | 0.00 | 0.00 | 0.00 | 63 | 1021.6 |
| 20260903104029 | 78 | 210 | 3.0 | 11.0 | 0.00 | 0.00 | 0.00 | 64 | 1021.7 |
| 20260903103535 | 77 | 232 | 2.0 | 11.0 | 0.00 | 0.00 | 0.00 | 64 | 1021.7 |
| 20260903103027 | 77 | 216 | 5.0 | 13.0 | 0.00 | 0.00 | 0.00 | 65 | 1021.8 |
| 20260903102540 | 77 | 331 | 7.0 | 13.0 | 0.00 | 0.00 | 0.00 | 66 | 1021.8 |
| 20260903102036 | 76 | 254 | 4.0 | 13.0 | 0.00 | 0.00 | 0.00 | 66 | 1021.9 |
| 20260903101526 | 76 | 298 | 6.0 | 13.0 | 0.00 | 0.00 | 0.00 | 66 | 1021.8 |
| 20260903101105 | 76 | 306 | 3.0 | 13.0 | 0.00 | 0.00 | 0.00 | 65 | 1021.8 |
| 20260903100615 | 76 | 251 | 4.0 | 13.0 | 0.00 | 0.00 | 0.00 | 67 | 1021.9 |
| 20260903100029 | 75 | 230 | 4.0 | 13.0 | 0.00 | 0.00 | 0.00 | 66 | 1022.0 |
| 20260903095542 | 75 | 281 | 3.0 | 14.0 | 0.00 | 0.00 | 0.00 | 67 | 1021.9 |
| 20260903095038 | 75 | 319 | 3.0 | 12.0 | 0.00 | 0.00 | 0.00 | 67 | 1022.1 |
| 20260903094529 | 75 | 273 | 6.0 | 12.0 | 0.00 | 0.00 | 0.00 | 67 | 1022.0 |
| 20260903094029 | 74 | 278 | 4.0 | 11.0 | 0.00 | 0.00 | 0.00 | 68 | 1022.1 |
| 20260903093542 | 74 | 213 | 4.0 | 11.0 | 0.00 | 0.00 | 0.00 | 68 | 1022.2 |
| 20260903093029 | 74 | 255 | 4.0 | 12.0 | 0.00 | 0.00 | 0.00 | 68 | 1022.2 |
| 20260903092541 | 74 | 234 | 4.0 | 12.0 | 0.00 | 0.00 | 0.00 | 67 | 1022.2 |
| 20260903092032 | 74 | 273 | 3.0 | 9.0 | 0.00 | 0.00 | 0.00 | 68 | 1022.2 |
| 20260903091552 | 74 | 234 | 3.0 | 10.0 | 0.00 | 0.00 | 0.00 | 67 | 1022.4 |
| 20260903091046 | 74 | 194 | 3.0 | 10.0 | 0.00 | 0.00 | 0.00 | 68 | 1022.5 |
| 20260903090536 | 74 | 235 | 1.0 | 9.0 | 0.00 | 0.00 | 0.00 | 69 | 1022.4 |
| 20260903090059 | 74 | 236 | 3.0 | 9.0 | 0.00 | 0.00 | 0.00 | 68 | 1022.3 |
| 20260903085559 | 74 | 268 | 3.0 | 8.0 | 0.00 | 0.00 | 0.00 | 69 | 1022.4 |
| 20260903085107 | 73 | 288 | 1.0 | 8.0 | 0.00 | 0.00 | 0.00 | 70 | 1022.5 |
| 20260903084539 | 73 | 291 | 1.0 | 8.0 | 0.00 | 0.00 | 0.00 | 72 | 1022.5 |
| 20260903084034 | 72 | 245 | 1.0 | 6.0 | 0.00 | 0.00 | 0.00 | 72 | 1022.4 |
| 20260903083529 | 72 | 240 | 1.0 | 5.0 | 0.00 | 0.00 | 0.00 | 71 | 1022.4 |
| 20260903083037 | 71 | 271 | 1.0 | 4.0 | 0.00 | 0.00 | 0.00 | 73 | 1022.3 |
| 20260903082532 | 71 | 288 | 1.0 | 4.0 | 0.00 | 0.00 | 0.00 | 73 | 1022.4 |
| 20260903082044 | 70 | 232 | 1.0 | 6.0 | 0.00 | 0.00 | 0.00 | 73 | 1022.4 |
| 20260903081537 | 70 | 275 | 1.0 | 7.0 | 0.00 | 0.00 | 0.00 | 75 | 1022.2 |
| 20260903081035 | 69 | 242 | 2.0 | 8.0 | 0.00 | 0.00 | 0.00 | 74 | 1022.4 |
| 20260903080536 | 69 | 277 | 2.0 | 9.0 | 0.00 | 0.00 | 0.00 | 74 | 1022.3 |
| 20260903080027 | 69 | 278 | 2.0 | 9.0 | 0.00 | 0.00 | 0.00 | 74 | 1022.3 |
| 20260903075540 | 69 | 238 | 1.0 | 8.0 | 0.00 | 0.00 | 0.00 | 76 | 1022.3 |
| 20260903075030 | 68 | 288 | 1.0 | 8.0 | 0.00 | 0.00 | 0.00 | 75 | 1022.2 |
| 20260903074544 | 68 | 265 | 1.0 | 7.0 | 0.00 | 0.00 | 0.00 | 76 | 1022.1 |
| 20260903074038 | 67 | 279 | 1.0 | 7.0 | 0.00 | 0.00 | 0.00 | 76 | 1022.2 |
| 20260903073537 | 66 | 269 | 1.0 | 10.0 | 0.00 | 0.00 | 0.00 | 77 | 1022.3 |
| 20260903073029 | 66 | 222 | 1.0 | 10.0 | 0.00 | 0.00 | 0.00 | 76 | 1022.3 |
| 20260903072540 | 66 | 296 | 1.0 | 6.0 | 0.00 | 0.00 | 0.00 | 76 | 1022.3 |
| 20260903072029 | 65 | 281 | 1.0 | 4.0 | 0.00 | 0.00 | 0.00 | 77 | 1022.3 |
| 20260903071544 | 65 | 282 | 1.0 | 7.0 | 0.00 | 0.00 | 0.00 | 77 | 1022.4 |
| 20260903071041 | 64 | 273 | 2.0 | 7.0 | 0.00 | 0.00 | 0.00 | 77 | 1022.4 |
| 20260903070532 | 64 | 261 | 2.0 | 5.0 | 0.00 | 0.00 | 0.00 | 77 | 1022.3 |
| 20260903070028 | 64 | 275 | 1.0 | 6.0 | 0.00 | 0.00 | 0.00 | 78 | 1022.2 |
| 20260903065545 | 63 | 258 | 1.0 | 8.0 | 0.00 | 0.00 | 0.00 | 78 | 1022.2 |
| 20260903065033 | 63 | 281 | 2.0 | 8.0 | 0.00 | 0.00 | 0.00 | 79 | 1022.2 |
| 20260903064531 | 62 | 221 | 3.0 | 7.0 | 0.00 | 0.00 | 0.00 | 80 | 1022.3 |
| 20260903064041 | 62 | 225 | 2.0 | 5.0 | 0.00 | 0.00 | 0.00 | 80 | 1022.2 |
| 20260903063536 | 61 | 242 | 1.0 | 8.0 | 0.00 | 0.00 | 0.00 | 81 | 1022.2 |
| 20260903063031 | 61 | 216 | 2.0 | 8.0 | 0.00 | 0.00 | 0.00 | 81 | 1022.1 |
| 20260903062543 | 61 | 281 | 2.0 | 5.0 | 0.00 | 0.00 | 0.00 | 81 | 1022.0 |
| 20260903062037 | 60 | 280 | 2.0 | 7.0 | 0.00 | 0.00 | 0.00 | 82 | 1021.9 |
| 20260903061529 | 60 | 263 | 2.0 | 8.0 | 0.00 | 0.00 | 0.00 | 82 | 1021.9 |
| 20260903061039 | 60 | 253 | 2.0 | 8.0 | 0.00 | 0.00 | 0.00 | 83 | 1021.8 |
| 20260903060535 | 59 | 279 | 1.0 | 5.0 | 0.00 | 0.00 | 0.00 | 83 | 1021.7 |
| 20260903060104 | 59 | 231 | 2.0 | 6.0 | 0.00 | 0.00 | 0.00 | 83 | 1021.5 |
| 20260903055535 | 59 | 220 | 2.0 | 6.0 | 0.00 | 0.00 | 0.00 | 84 | 1021.4 |
| 20260903055023 | 58 | 224 | 2.0 | 6.0 | 0.00 | 0.00 | 0.00 | 84 | 1021.3 |
| 20260903054543 | 58 | 229 | 2.0 | 5.0 | 0.00 | 0.00 | 0.00 | 84 | 1021.2 |
| 20260903054028 | 58 | 232 | 1.0 | 5.0 | 0.00 | 0.00 | 0.00 | 84 | 1021.3 |
| 20260903053607 | 58 | 229 | 1.0 | 4.0 | 0.00 | 0.00 | 0.00 | 84 | 1021.3 |
| 20260903053038 | 58 | 259 | 1.0 | 6.0 | 0.00 | 0.00 | 0.00 | 84 | 1021.4 |
| 20260903052530 | 58 | 245 | 1.0 | 6.0 | 0.00 | 0.00 | 0.00 | 84 | 1021.4 |
| 20260903052042 | 58 | 263 | 1.0 | 4.0 | 0.00 | 0.00 | 0.00 | 84 | 1021.2 |
| 20260903051600 | 58 | 247 | 1.0 | 5.0 | 0.00 | 0.00 | 0.00 | 84 | 1021.2 |
| 20260903051031 | 58 | 249 | 1.0 | 5.0 | 0.00 | 0.00 | 0.00 | 84 | 1021.2 |
| 20260903050551 | 58 | 245 | 1.0 | 5.0 | 0.00 | 0.00 | 0.00 | 84 | 1021.2 |
| 20260903050039 | 58 | 251 | 1.0 | 5.0 | 0.00 | 0.00 | 0.00 | 84 | 1021.1 |
| 20260903045535 | 58 | 221 | 1.0 | 5.0 | 0.00 | 0.00 | 0.00 | 83 | 1020.9 |
| 20260903045029 | 58 | 209 | 2.0 | 5.0 | 0.00 | 0.00 | 0.00 | 83 | 1020.9 |
| 20260903044540 | 58 | 234 | 1.0 | 4.0 | 0.00 | 0.00 | 0.00 | 83 | 1021.0 |
| 20260903044035 | 58 | 252 | 1.0 | 4.0 | 0.00 | 0.00 | 0.00 | 83 | 1020.9 |
| 20260903043531 | 58 | 233 | 2.0 | 5.0 | 0.00 | 0.00 | 0.00 | 83 | 1020.9 |
| 20260903043031 | 59 | 241 | 1.0 | 5.0 | 0.00 | 0.00 | 0.00 | 83 | 1020.9 |
| 20260903042547 | 58 | 230 | 2.0 | 5.0 | 0.00 | 0.00 | 0.00 | 83 | 1020.9 |
| 20260903042040 | 58 | 227 | 2.0 | 5.0 | 0.00 | 0.00 | 0.00 | 83 | 1021.0 |
| 20260903041602 | 58 | 286 | 1.0 | 5.0 | 0.00 | 0.00 | 0.00 | 83 | 1021.1 |
| 20260903041033 | 58 | 253 | 1.0 | 5.0 | 0.00 | 0.00 | 0.00 | 83 | 1021.2 |
| 20260903040553 | 58 | 227 | 1.0 | 5.0 | 0.00 | 0.00 | 0.00 | 82 | 1021.2 |
| 20260903040049 | 58 | 250 | 2.0 | 7.0 | 0.00 | 0.00 | 0.00 | 82 | 1021.2 |
| 20260903035537 | 59 | 224 | 2.0 | 5.0 | 0.00 | 0.00 | 0.00 | 81 | 1021.2 |
| 20260903035034 | 59 | 242 | 1.0 | 6.0 | 0.00 | 0.00 | 0.00 | 81 | 1021.1 |
| 20260903034547 | 59 | 238 | 1.0 | 7.0 | 0.00 | 0.00 | 0.00 | 81 | 1021.0 |
| 20260903034030 | 59 | 247 | 2.0 | 7.0 | 0.00 | 0.00 | 0.00 | 80 | 1021.1 |
| 20260903033603 | 59 | 231 | 2.0 | 6.0 | 0.00 | 0.00 | 0.00 | 80 | 1021.3 |
| 20260903033038 | 59 | 263 | 2.0 | 6.0 | 0.00 | 0.00 | 0.00 | 80 | 1021.2 |
| 20260903032530 | 59 | 238 | 2.0 | 4.0 | 0.00 | 0.00 | 0.00 | 80 | 1021.1 |
| 20260903032038 | 59 | 279 | 1.0 | 4.0 | 0.00 | 0.00 | 0.00 | 79 | 1021.0 |
| 20260903031554 | 60 | 273 | 1.0 | 5.0 | 0.00 | 0.00 | 0.00 | 79 | 1021.0 |
| 20260903031035 | 60 | 242 | 1.0 | 5.0 | 0.00 | 0.00 | 0.00 | 79 | 1020.9 |
| 20260903030549 | 60 | 234 | 1.0 | 4.0 | 0.00 | 0.00 | 0.00 | 79 | 1020.8 |
| 20260903030041 | 60 | 257 | 1.0 | 5.0 | 0.00 | 0.00 | 0.00 | 79 | 1020.9 |
| 20260903025536 | 60 | 271 | 1.0 | 5.0 | 0.00 | 0.00 | 0.00 | 78 | 1020.9 |
| 20260903025030 | 60 | 231 | 1.0 | 4.0 | 0.00 | 0.00 | 0.00 | 78 | 1020.8 |
| 20260903024544 | 60 | 249 | 1.0 | 4.0 | 0.00 | 0.00 | 0.00 | 78 | 1020.8 |
| 20260903024043 | 60 | 271 | 1.0 | 4.0 | 0.00 | 0.00 | 0.00 | 78 | 1020.8 |
| 20260903023601 | 60 | 231 | 2.0 | 4.0 | 0.00 | 0.00 | 0.00 | 77 | 1020.8 |
| 20260903023103 | 60 | 268 | 1.0 | 4.0 | 0.00 | 0.00 | 0.00 | 77 | 1020.7 |
| 20260903022535 | 60 | 253 | 1.0 | 4.0 | 0.00 | 0.00 | 0.00 | 76 | 1020.7 |
| 20260903022030 | 61 | 255 | 1.0 | 4.0 | 0.00 | 0.00 | 0.00 | 76 | 1020.7 |
| 20260903021531 | 61 | 276 | 1.0 | 5.0 | 0.00 | 0.00 | 0.00 | 76 | 1020.8 |
| 20260903021045 | 61 | 247 | 1.0 | 5.0 | 0.00 | 0.00 | 0.00 | 76 | 1020.8 |
| 20260903020539 | 61 | 269 | 1.0 | 4.0 | 0.00 | 0.00 | 0.00 | 75 | 1020.7 |
| 20260903020031 | 61 | 275 | 2.0 | 5.0 | 0.00 | 0.00 | 0.00 | 75 | 1020.8 |
| 20260903015540 | 61 | 263 | 1.0 | 5.0 | 0.00 | 0.00 | 0.00 | 75 | 1020.9 |
| 20260903015034 | 61 | 255 | 1.0 | 6.0 | 0.00 | 0.00 | 0.00 | 75 | 1020.8 |
| 20260903014533 | 62 | 276 | 1.0 | 4.0 | 0.00 | 0.00 | 0.00 | 74 | 1020.8 |
| 20260903014025 | 62 | 238 | 1.0 | 4.0 | 0.00 | 0.00 | 0.00 | 74 | 1020.7 |
| 20260903013543 | 62 | 233 | 1.0 | 3.0 | 0.00 | 0.00 | 0.00 | 74 | 1020.7 |
| 20260903013041 | 61 | 259 | 1.0 | 5.0 | 0.00 | 0.00 | 0.00 | 74 | 1020.8 |
| 20260903012539 | 61 | 236 | 1.0 | 6.0 | 0.00 | 0.00 | 0.00 | 74 | 1020.7 |
| 20260903012027 | 61 | 273 | 1.0 | 4.0 | 0.00 | 0.00 | 0.00 | 74 | 1020.8 |
| 20260903011545 | 61 | 255 | 1.0 | 5.0 | 0.00 | 0.00 | 0.00 | 74 | 1020.9 |
| 20260903011044 | 61 | 247 | 1.0 | 5.0 | 0.00 | 0.00 | 0.00 | 74 | 1020.8 |
| 20260903010619 | 61 | 284 | 2.0 | 5.0 | 0.00 | 0.00 | 0.00 | 74 | 1020.8 |
| 20260903010049 | 61 | 258 | 1.0 | 3.0 | 0.00 | 0.00 | 0.00 | 74 | 1020.8 |
| 20260903005540 | 61 | 269 | 0.0 | 3.0 | 0.00 | 0.00 | 0.00 | 74 | 1020.7 |
| 20260903005027 | 61 | 222 | 1.0 | 3.0 | 0.00 | 0.00 | 0.00 | 74 | 1020.7 |
| 20260903004541 | 61 | 249 | 1.0 | 3.0 | 0.00 | 0.00 | 0.00 | 74 | 1020.6 |
| 20260903004035 | 61 | 241 | 0.0 | 1.0 | 0.00 | 0.00 | 0.00 | 73 | 1020.7 |
| 20260903003549 | 62 | 238 | 0.0 | 1.0 | 0.00 | 0.00 | 0.00 | 73 | 1020.7 |
| 20260903003043 | 62 | 227 | 0.0 | 1.0 | 0.00 | 0.00 | 0.00 | 73 | 1020.7 |
| 20260903002535 | 62 | 246 | 1.0 | 3.0 | 0.00 | 0.00 | 0.00 | 73 | 1020.6 |
| 20260903002029 | 61 | 238 | 0.0 | 3.0 | 0.00 | 0.00 | 0.00 | 73 | 1020.7 |
| 20260903001538 | 62 | 237 | 0.0 | 2.0 | 0.00 | 0.00 | 0.00 | 73 | 1020.8 |
| 20260903001105 | 61 | 240 | 0.0 | 2.0 | 0.00 | 0.00 | 0.00 | 74 | 1020.9 |
| 20260903000535 | 61 | 240 | 0.0 | 1.0 | 0.00 | 0.00 | 0.00 | 74 | 1020.8 |
| 20260902235541 | 61 | 240 | 0.0 | 1.0 | 0.00 | 0.00 | 0.00 | 74 | 1020.8 |
| 20260902235039 | 61 | 239 | 0.0 | 1.0 | 0.00 | 0.00 | 0.00 | 74 | 1020.8 |
| 20260902234532 | 61 | 236 | 0.0 | 1.0 | 0.00 | 0.00 | 0.00 | 75 | 1020.9 |
| 20260902234041 | 61 | 267 | 0.0 | 1.0 | 0.00 | 0.00 | 0.00 | 75 | 1021.0 |
| 20260902233539 | 61 | 292 | 0.0 | 1.0 | 0.00 | 0.00 | 0.00 | 76 | 1021.0 |
| 20260902233032 | 61 | 297 | 0.0 | 0.0 | 0.00 | 0.00 | 0.00 | 76 | 1020.9 |
| 20260902232545 | 61 | 297 | 0.0 | 0.0 | 0.00 | 0.00 | 0.00 | 76 | 1020.9 |
| 20260902232039 | 61 | 297 | 0.0 | 0.0 | 0.00 | 0.00 | 0.00 | 76 | 1020.8 |
| 20260902231536 | 62 | 297 | 0.0 | 0.0 | 0.00 | 0.00 | 0.00 | 76 | 1020.8 |
| 20260902231051 | 62 | 297 | 0.0 | 0.0 | 0.00 | 0.00 | 0.00 | 76 | 1020.9 |
| 20260902230543 | 62 | 297 | 0.0 | 0.0 | 0.00 | 0.00 | 0.00 | 77 | 1020.8 |
| 20260902230034 | 62 | 297 | 0.0 | 0.0 | 0.00 | 0.00 | 0.00 | 77 | 1020.9 |
| 20260902225549 | 62 | 297 | 0.0 | 0.0 | 0.00 | 0.00 | 0.00 | 76 | 1020.9 |
| 20260902225059 | 62 | 297 | 0.0 | 0.0 | 0.00 | 0.00 | 0.00 | 76 | 1020.9 |
| 20260902224533 | 62 | 297 | 0.0 | 0.0 | 0.00 | 0.00 | 0.00 | 76 | 1020.9 |
| 20260902224034 | 62 | 297 | 0.0 | 0.0 | 0.00 | 0.00 | 0.00 | 76 | 1020.9 |
| 20260902223542 | 62 | 297 | 0.0 | 0.0 | 0.00 | 0.00 | 0.00 | 76 | 1020.9 |
| 20260902223040 | 62 | 297 | 0.0 | 0.0 | 0.00 | 0.00 | 0.00 | 76 | 1020.9 |
| 20260902222533 | 62 | 297 | 0.0 | 0.0 | 0.00 | 0.00 | 0.00 | 75 | 1020.9 |
| 20260902222056 | 62 | 297 | 0.0 | 0.0 | 0.00 | 0.00 | 0.00 | 75 | 1020.9 |